K4AXV-13 Weather Reports


time (UTC)temp
C
wind
direction
speed
KPH
gust
KPH
rain 1hr
cm
rain 24hr
cm
rain mn
cm
humidity
%
barometer
mb
20260902161703 32 93 4.8 3.2 0.00 0.00 0.00
20260902160701 32 245 0.0 0.0 0.00 0.00 0.00
20260902160159 32 322 0.0 0.0 0.00 0.00 0.00
20260902155659 32 80 3.2 3.2 0.00 0.00 0.00
20260902155157 32 77 1.6 1.6 0.00 0.00 0.00
20260902154658 32 122 0.0 4.8 0.00 0.00 0.00
20260902154156 32 124 4.8 3.2 0.00 0.00 0.00
20260902153657 32 17 1.6 0.0 0.00 0.00 0.00
20260902153154 31 48 3.2 0.0 0.00 0.00 0.00
20260902152655 31 117 4.8 3.2 0.00 0.00 0.00
20260902152151 31 105 3.2 1.6 0.00 0.00 0.00
20260902151653 30 69 3.2 0.0 0.00 0.00 0.00
20260902145746 30 62 0.0 0.0 0.00 0.03 0.00
20260902145247 30 70 0.0 0.0 0.00 0.03 0.00
20260902144744 30 131 3.2 4.8 0.00 0.03 0.00
20260902144245 30 72 0.0 0.0 0.00 0.03 0.00
20260902143744 29 72 0.0 0.0 0.00 0.03 0.00
20260902143244 29 90 3.2 3.2 0.00 0.03 0.00
20260902142742 29 52 0.0 0.0 0.00 0.03 0.00
20260902142243 28 52 1.6 0.0 0.00 0.03 0.00
20260902141739 28 4 0.0 0.0 0.00 0.03 0.00
20260902141240 28 4 0.0 0.0 0.00 0.03 0.00
20260902140239 28 23 0.0 0.0 0.00 0.03 0.00
20260902135735 27 94 0.0 0.0 0.00 0.03 0.00
20260902135236 27 94 0.0 0.0 0.00 0.03 0.00
20260902134733 27 115 0.0 0.0 0.00 0.03 0.00
20260902134234 27 115 0.0 0.0 0.00 0.03 0.00
20260902133731 27 115 0.0 0.0 0.00 0.03 0.00
20260902133232 27 115 0.0 0.0 0.00 0.03 0.00
20260902132729 27 138 0.0 0.0 0.00 0.03 0.00
20260902132230 26 214 0.0 0.0 0.00 0.03 0.00
20260902131727 26 214 0.0 0.0 0.00 0.03 0.00
20260902131228 26 214 0.0 0.0 0.00 0.03 0.00
20260902125320 26 214 0.0 0.0 0.00 0.03 0.00
20260902125240 26 214 0.0 0.0 0.00 0.03 0.00
20260902124717 26 214 0.0 0.0 0.00 0.03 0.00
20260902124216 25 214 0.0 0.0 0.00 0.03 0.00
20260902122703 25 214 0.0 0.0 0.00 0.03 0.00
20260902115152 24 214 0.0 0.0 0.00 0.03 0.00
20260902115015 24 214 0.0 0.0 0.00 0.03 0.00
20260902114649 24 214 0.0 0.0 0.00 0.03 0.00
20260902114512 23 214 0.0 0.0 0.00 0.03 0.00
20260902114247 23 214 0.0 0.0 0.00 0.03 0.00
20260902114150 23 214 0.0 0.0 0.00 0.03 0.00
20260902113643 23 214 0.0 0.0 0.00 0.03 0.00
20260902112640 23 214 0.0 0.0 0.00 0.03 0.00
20260902112459 23 214 0.0 0.0 0.00 0.03 0.00
20260902112329 23 214 0.0 0.0 0.00 0.03 0.00
20260902111636 23 214 0.0 0.0 0.00 0.03 0.00
20260902110250 23 214 0.0 0.0 0.00 0.03 0.00
20260902110215 23 214 0.0 0.0 0.00 0.03 0.00
20260902110134 23 214 0.0 0.0 0.00 0.03 0.00
20260902103914 23 214 0.0 0.0 0.00 0.03 0.00
20260902103746 23 214 0.0 0.0 0.00 0.03 0.00
20260902103711 23 214 0.0 0.0 0.00 0.03 0.00
20260902103624 23 214 0.0 0.0 0.00 0.03 0.00
20260902103337 23 214 0.0 0.0 0.00 0.03 0.00
20260902103100 23 214 0.0 0.0 0.00 0.03 0.00
20260902103023 23 214 0.0 0.0 0.00 0.03 0.00
20260902102119 23 214 0.0 0.0 0.00 0.03 0.00
20260902101730 23 214 0.0 0.0 0.00 0.03 0.00
20260902101648 23 214 0.0 0.0 0.00 0.03 0.00
20260902101614 23 214 0.0 0.0 0.00 0.03 0.00
20260902101115 23 214 0.0 0.0 0.00 0.03 0.00
20260902101015 23 214 0.0 0.0 0.00 0.03 0.00
20260902101013 23 214 0.0 0.0 0.00 0.03 0.00
20260902100834 23 214 0.0 0.0 0.00 0.03 0.00
20260902100738 23 214 0.0 0.0 0.00 0.03 0.00
20260902100642 23 214 0.0 0.0 0.00 0.03 0.00
20260902100611 23 214 0.0 0.0 0.00 0.03 0.00
20260902100314 23 214 0.0 0.0 0.00 0.03 0.00
20260902100242 23 214 0.0 0.0 0.00 0.03 0.00
20260902100111 23 214 0.0 0.0 0.00 0.03 0.00
20260902094833 23 214 0.0 0.0 0.00 0.03 0.00
20260902094808 24 214 0.0 0.0 0.00 0.03 0.00
20260902094746 23 214 0.0 0.0 0.00 0.03 0.00
20260902094737 24 214 0.0 0.0 0.00 0.03 0.00
20260902094059 23 214 0.0 0.0 0.00 0.03 0.00
20260902093134 24 214 0.0 0.0 0.00 0.03 0.00
20260902093057 24 214 0.0 0.0 0.00 0.03 0.00
20260902091552 23 214 0.0 0.0 0.00 0.03 0.00
20260902083721 23 214 0.0 0.0 0.00 0.03 0.00
20260902083646 23 214 0.0 0.0 0.00 0.03 0.00
20260902083541 23 214 0.0 0.0 0.00 0.03 0.00
20260902083436 23 214 0.0 0.0 0.00 0.03 0.00
20260902083256 23 214 0.0 0.0 0.00 0.03 0.00
20260902082607 23 214 0.0 0.0 0.00 0.03 0.00
20260902082535 23 214 0.0 0.0 0.00 0.03 0.00
20260902081458 23 214 0.0 0.0 0.00 0.03 0.00
20260902081331 23 214 0.0 0.0 0.00 0.03 0.00
20260902081108 23 214 0.0 0.0 0.00 0.03 0.00
20260902081033 23 214 0.0 0.0 0.00 0.03 0.00
20260902080246 24 214 0.0 0.0 0.00 0.03 0.00
20260902080115 24 214 0.0 0.0 0.00 0.03 0.00
20260902080031 24 214 0.0 0.0 0.00 0.03 0.00
20260902074524 23 214 0.0 0.0 0.00 0.03 0.00
20260902073520 24 214 0.0 0.0 0.00 0.03 0.00
20260902072516 24 214 0.0 0.0 0.00 0.03 0.00
20260902071511 24 214 0.0 0.0 0.00 0.03 0.00
20260902071218 24 214 0.0 0.0 0.00 0.03 0.00
20260902071049 24 214 0.0 0.0 0.00 0.03 0.00
20260902071011 24 214 0.0 0.0 0.00 0.03 0.00
20260902065321 23 214 0.0 0.0 0.00 0.03 0.00
20260902065011 23 214 0.0 0.0 0.00 0.03 0.00
20260902064511 24 214 0.0 0.0 0.00 0.03 0.00
20260902064006 24 214 0.0 0.0 0.00 0.03 0.00
20260902063552 24 214 0.0 0.0 0.00 0.00 0.03
20260902063519 24 214 0.0 0.0 0.00 0.00 0.03
20260902063005 24 214 0.0 0.0 0.00 0.00 0.03
20260902062042 24 214 0.0 0.0 0.00 0.00 0.03
20260902062004 24 214 0.0 0.0 0.00 0.00 0.03
20260902061458 24 214 0.0 0.0 0.00 0.00 0.03
20260902060503 23 214 0.0 0.0 0.00 0.00 0.03
20260902055958 24 214 0.0 0.0 0.00 0.00 0.03
20260902055454 24 214 0.0 0.0 0.00 0.00 0.03
20260902055037 24 214 0.0 0.0 0.00 0.00 0.03
20260902054955 24 214 0.0 0.0 0.00 0.00 0.03
20260902054451 24 214 0.0 0.0 0.00 0.00 0.03
20260902053952 24 214 0.0 0.0 0.00 0.00 0.03
20260902053450 24 214 0.0 0.0 0.00 0.00 0.03
20260902053324 24 214 0.0 0.0 0.00 0.00 0.03
20260902053214 24 214 0.0 0.0 0.00 0.00 0.03
20260902052950 24 214 0.0 0.0 0.00 0.00 0.03
20260902052446 25 214 0.0 0.0 0.00 0.00 0.03
20260902051946 25 214 0.0 0.0 0.00 0.00 0.03
20260902051444 24 214 0.0 0.0 0.00 0.00 0.03
20260902051026 25 214 0.0 0.0 0.00 0.00 0.03
20260902050945 25 214 0.0 0.0 0.00 0.00 0.03
20260902050736 24 214 0.0 0.0 0.00 0.00 0.03
20260902050704 24 214 0.0 0.0 0.00 0.00 0.03
20260902045943 24 214 0.0 0.0 0.00 0.00 0.03
20260902045441 24 214 0.0 0.0 0.00 0.00 0.03
20260902044944 25 214 0.0 0.0 0.00 0.00 0.03
20260902044527 25 214 0.0 0.0 0.00 0.00 0.03
20260902044523 24 214 0.0 0.0 0.00 0.00 0.03
20260902044438 25 214 0.0 0.0 0.00 0.00 0.03
20260902043939 25 214 0.0 0.0 0.00 0.00 0.03
20260902042937 24 214 0.0 0.0 0.00 0.00 0.03
20260902042433 25 214 0.0 0.0 0.00 0.00 0.03
20260902041432 25 214 0.0 0.0 0.00 0.00 0.03
20260902035931 25 214 0.0 0.0 0.00 0.00 0.03
20260902034930 25 214 0.0 0.0 0.00 0.00 0.03
20260902034427 25 214 0.0 0.0 0.00 0.00 0.03
20260902033928 25 214 0.0 0.0 0.00 0.00 0.03
20260902033504 25 214 0.0 0.0 0.00 0.00 0.03
20260902033425 25 214 0.0 0.0 0.00 0.00 0.03
20260902032926 25 214 0.0 0.0 0.00 0.00 0.03
20260902032421 25 214 0.0 0.0 0.00 0.00 0.03
20260902031921 25 214 0.0 0.0 0.00 0.00 0.03
20260902031504 25 214 0.0 0.0 0.00 0.00 0.03
20260902031417 25 214 0.0 0.0 0.00 0.00 0.03
20260902030917 25 214 0.0 0.0 0.00 0.00 0.03
20260902030409 25 214 0.0 0.0 0.00 0.00 0.03
20260902025908 26 214 0.0 0.0 0.00 0.00 0.03
20260902024904 25 214 0.0 0.0 0.00 0.00 0.03
20260902024359 25 214 0.0 0.0 0.00 0.00 0.03
20260902023900 25 214 0.0 0.0 0.00 0.00 0.03
20260902023403 25 249 0.0 0.0 0.00 0.00 0.03
20260902022857 25 249 0.0 0.0 0.00 0.00 0.03
20260902021854 26 249 0.0 0.0 0.00 0.00 0.03
20260902021349 26 249 0.0 0.0 0.00 0.00 0.03
20260902020850 25 249 0.0 0.0 0.00 0.00 0.03
20260902020346 26 249 0.0 0.0 0.00 0.00 0.03
20260902015847 25 249 0.0 0.0 0.00 0.00 0.03
20260902015346 26 325 0.0 0.0 0.00 0.00 0.03
20260902014846 26 325 0.0 0.0 0.00 0.00 0.03
20260902014343 26 325 0.0 0.0 0.00 0.00 0.03
20260902013841 26 325 0.0 0.0 0.00 0.00 0.03
20260902013337 26 325 0.0 0.0 0.00 0.00 0.03
20260902012837 26 325 0.0 0.0 0.00 0.00 0.03
20260902012333 26 325 0.0 0.0 0.00 0.00 0.03
20260902011834 26 325 0.0 0.0 0.00 0.00 0.03
20260902011326 26 325 0.0 0.0 0.00 0.00 0.03
20260902010827 26 325 0.0 0.0 0.00 0.00 0.03
20260902010323 26 325 0.0 0.0 0.00 0.00 0.03
20260902005825 26 325 0.0 0.0 0.00 0.00 0.03
20260902005318 27 325 0.0 0.0 0.00 0.00 0.03
20260902004824 27 325 0.0 0.0 0.00 0.00 0.03
20260902004317 27 325 0.0 0.0 0.00 0.00 0.03
20260902003818 27 325 0.0 0.0 0.00 0.00 0.03
20260902003314 27 325 0.0 0.0 0.00 0.00 0.03
20260902002814 27 325 0.0 0.0 0.00 0.00 0.03
20260902001812 27 325 0.0 0.0 0.00 0.00 0.03
20260902001310 27 93 0.0 1.6 0.00 0.00 0.03
20260902000811 27 93 0.0 0.0 0.00 0.00 0.03
20260902000309 28 93 0.0 0.0 0.00 0.00 0.03
20260901235810 27 93 0.0 0.0 0.00 0.00 0.03
20260901235307 28 93 0.0 0.0 0.00 0.00 0.03
20260901234806 28 93 0.0 0.0 0.00 0.00 0.03
20260901234303 28 93 0.0 0.0 0.00 0.00 0.03
20260901233802 28 93 0.0 0.0 0.00 0.00 0.03
20260901233300 28 93 0.0 0.0 0.00 0.00 0.03
20260901232258 28 122 3.2 6.4 0.00 0.00 0.03
20260901231255 28 101 0.0 0.0 0.00 0.00 0.03
20260901230252 29 145 3.2 3.2 0.00 0.00 0.03
20260901225753 29 110 1.6 4.8 0.00 0.00 0.03
20260901225251 29 120 1.6 1.6 0.00 0.00 0.03
20260901224752 29 117 4.8 3.2 0.00 0.00 0.03
20260901224245 29 113 1.6 1.6 0.00 0.00 0.03
20260901223243 30 124 3.2 4.8 0.00 0.00 0.03
20260901222744 29 156 6.4 6.4 0.00 0.00 0.03
20260901222241 30 117 8.0 6.4 0.00 0.00 0.03
20260901221742 30 142 8.0 8.0 0.00 0.00 0.03
20260901221239 30 142 9.7 8.0 0.00 0.00 0.03
20260901220740 30 143 8.0 8.0 0.00 0.00 0.03
20260901214737 30 210 4.8 4.8 0.00 0.00 0.03
20260901213735 30 156 8.0 9.7 0.00 0.00 0.03
20260901213233 30 125 6.4 6.4 0.00 0.00 0.03
20260901212734 30 149 9.7 11.3 0.00 0.00 0.03
20260901212232 31 156 9.7 11.3 0.00 0.00 0.03
20260901211733 31 141 6.4 9.7 0.00 0.00 0.03
20260901210732 31 124 11.3 8.0 0.00 0.00 0.03
20260901210230 31 138 1.6 6.4 0.00 0.00 0.03
20260901204730 31 125 4.8 8.0 0.00 0.00 0.03
20260901204228 31 113 6.4 8.0 0.00 0.00 0.03
20260901202728 31 155 12.9 11.3 0.00 0.00 0.03
20260901202226 31 145 11.3 11.3 0.00 0.00 0.03
20260901201727 32 124 6.4 6.4 0.00 0.00 0.03
20260901201225 32 51 0.0 1.6 0.00 0.00 0.03
20260901200224 31 136 6.4 4.8 0.00 0.00 0.03
20260901195725 31 110 6.4 3.2 0.00 0.00 0.03
20260901195221 31 136 6.4 6.4 0.00 0.00 0.03
20260901194219 32 139 1.6 6.4 0.00 0.00 0.03
20260901193720 32 134 0.0 8.0 0.00 0.00 0.03
20260901193217 32 359 3.2 1.6 0.00 0.00 0.03
20260901192718 32 312 1.6 0.0 0.00 0.00 0.03
20260901192216 32 120 3.2 3.2 0.00 0.00 0.03
20260901191717 31 127 9.7 8.0 0.00 0.00 0.03
20260901191215 32 162 12.9 6.4 0.00 0.00 0.03
20260901190214 32 129 3.2 1.6 0.00 0.00 0.03
20260901185715 32 84 1.6 3.2 0.00 0.00 0.03
20260901185213 32 91 3.2 3.2 0.00 0.00 0.03
20260901184714 32 84 0.0 0.0 0.00 0.00 0.03
20260901184212 32 118 9.7 8.0 0.00 0.00 0.03
20260901183211 32 128 6.4 11.3 0.00 0.00 0.03
20260901182712 32 80 6.4 3.2 0.00 0.00 0.03
20260901182210 32 53 0.0 0.0 0.00 0.00 0.03
20260901181710 32 62 0.0 0.0 0.00 0.00 0.03
20260901181208 32 101 1.6 0.0 0.00 0.00 0.03
20260901180708 32 134 1.6 1.6 0.00 0.00 0.03
20260901180207 31 93 6.4 6.4 0.00 0.00 0.03
20260901174706 32 100 1.6 1.6 0.00 0.00 0.03
20260901174205 31 115 3.2 1.6 0.00 0.00 0.03
20260901173705 31 87 3.2 1.6 0.00 0.00 0.03
20260901173202 31 100 0.0 4.8 0.00 0.00 0.03
20260901172702 31 103 1.6 0.0 0.00 0.00 0.03
20260901172201 31 138 1.6 6.4 0.00 0.00 0.03
20260901171701 31 55 0.0 0.0 0.00 0.00 0.03
20260901171200 31 84 1.6 6.4 0.00 0.00 0.03
20260901170701 31 141 8.0 8.0 0.00 0.00 0.03
20260901170159 31 128 9.7 8.0 0.00 0.00 0.03
20260901165659 31 55 0.0 0.0 0.00 0.00 0.03
20260901165156 31 148 4.8 8.0 0.00 0.00 0.03
20260901164657 31 101 1.6 3.2 0.00 0.00 0.03
20260901164155 31 107 3.2 3.2 0.00 0.00 0.03
20260901163656 31 105 3.2 1.6 0.00 0.00 0.03
20260901163154 31 75 1.6 1.6 0.00 0.00 0.03
20260901162655 31 72 0.0 0.0 0.00 0.00 0.03
20260901162153 31 72 6.4 4.8 0.00 0.00 0.03